When you browse on this site, cookies collect data to enhance your experience and personalize the content and advertising you see.
Visit our Privacy Policy to learn more. By continuing to use the site, you agree to this use of cookies and data.
  • în România
  • Lista ţărilor
  • Pe 7 zile
  • Temperatura apei
  • Hartă satelitară
  • Meteo pe hartă
  • Widget-uri
  • user-avatar
    Intrare

    Meteo pe oră la Melbourne

    Astăzi, 19 Aprilie, Vineri

    Timp Temperatura Precipitaţii Vânt Presiune Umiditate
    00:00 +13°C° 0 mm 3 m/s 769 mmHg 65%
    01:00 +12°C° 0 mm 3 m/s 769 mmHg 67%
    02:00 +12°C° 0 mm 3 m/s 769 mmHg 70%
    03:00 +12°C° 0 mm 3 m/s 769 mmHg 72%
    04:00 +12°C° 0 mm 2 m/s 769 mmHg 74%
    05:00 +12°C° 0 mm 2 m/s 769 mmHg 76%
    06:00 +12°C° 0 mm 1 m/s 769 mmHg 78%
    07:00 +11°C° 0 mm 1 m/s 769 mmHg 80%
    08:00 +13°C° 0 mm 1 m/s 769 mmHg 72%
    09:00 +16°C° 0 mm 1 m/s 769 mmHg 63%
    10:00 +17°C° 0 mm 0 m/s 769 mmHg 54%
    11:00 +19°C° 0 mm 0 m/s 769 mmHg 47%
    12:00 +21°C° 0 mm 0 m/s 768 mmHg 40%
    13:00 +23°C° 0 mm 0 m/s 768 mmHg 33%
    14:00 +25°C° 0 mm 1 m/s 767 mmHg 32%
    15:00 +25°C° 0 mm 1 m/s 767 mmHg 31%
    16:00 +26°C° 0 mm 2 m/s 766 mmHg 30%
    17:00 +24°C° 0 mm 2 m/s 767 mmHg 36%
    18:00 +22°C° 0 mm 1 m/s 767 mmHg 42%
    19:00 +20°C° 0 mm 1 m/s 767 mmHg 48%
    20:00 +19°C° 0 mm 1 m/s 767 mmHg 50%
    21:00 +19°C° 0 mm 1 m/s 767 mmHg 52%
    22:00 +16°C° 0 mm 0 m/s 767 mmHg 53%
    23:00 +18°C° 0 mm 1 m/s 767 mmHg 51%

    Mâine, 20 Aprilie, Sâmbătă

    Timp Temperatura Precipitaţii Vânt Presiune Umiditate
    00:00 +18°C° 0 mm 1 m/s 767 mmHg 50%
    01:00 +16°C° 0 mm 1 m/s 767 mmHg 48%
    02:00 +16°C° 0 mm 1 m/s 767 mmHg 47%
    03:00 +16°C° 0 mm 2 m/s 766 mmHg 45%
    04:00 +16°C° 0 mm 2 m/s 766 mmHg 44%
    05:00 +16°C° 0 mm 2 m/s 766 mmHg 45%
    06:00 +16°C° 0 mm 2 m/s 766 mmHg 46%
    07:00 +16°C° 0 mm 2 m/s 767 mmHg 47%
    08:00 +19°C° 0 mm 3 m/s 767 mmHg 44%
    09:00 +21°C° 0 mm 3 m/s 767 mmHg 41%
    10:00 +25°C° 0 mm 3 m/s 767 mmHg 38%
    11:00 +27°C° 0 mm 3 m/s 766 mmHg 36%
    12:00 +28°C° 0 mm 4 m/s 765 mmHg 34%
    13:00 +30°C° 0 mm 4 m/s 765 mmHg 32%
    14:00 +30°C° 0 mm 4 m/s 764 mmHg 32%
    15:00 +30°C° 0 mm 3 m/s 763 mmHg 32%
    16:00 +31°C° 0 mm 3 m/s 763 mmHg 32%
    17:00 +29°C° 0 mm 3 m/s 763 mmHg 37%
    18:00 +27°C° 0 mm 3 m/s 763 mmHg 42%
    19:00 +25°C° 0 mm 3 m/s 763 mmHg 47%
    20:00 +25°C° 0 mm 3 m/s 763 mmHg 49%
    21:00 +24°C° 0 mm 3 m/s 763 mmHg 50%
    22:00 +24°C° 0 mm 3 m/s 763 mmHg 51%
    23:00 +23°C° 0 mm 4 m/s 763 mmHg 51%

    Poimâine, 21 Aprilie, Duminică

    Timp Temperatura Precipitaţii Vânt Presiune Umiditate
    00:00 +23°C° 0 mm 4 m/s 763 mmHg 50%
    01:00 +23°C° 0 mm 4 m/s 762 mmHg 50%
    02:00 +23°C° 0 mm 5 m/s 762 mmHg 49%
    03:00 +23°C° 0 mm 5 m/s 761 mmHg 49%
    04:00 +23°C° 0 mm 6 m/s 761 mmHg 49%
    05:00 +23°C° 0 mm 6 m/s 761 mmHg 50%
    06:00 +22°C° 0 mm 6 m/s 761 mmHg 51%
    07:00 +22°C° 0 mm 7 m/s 762 mmHg 52%
    08:00 +23°C° 0 mm 6 m/s 762 mmHg 51%
    09:00 +23°C° 0 mm 6 m/s 762 mmHg 50%
    10:00 +24°C° 0 mm 6 m/s 763 mmHg 50%
    11:00 +26°C° 0 mm 5 m/s 763 mmHg 48%
    12:00 +26°C° 0 mm 4 m/s 763 mmHg 46%
    13:00 +27°C° 0 mm 4 m/s 763 mmHg 44%
    14:00 +26°C° 0 mm 4 m/s 763 mmHg 48%
    15:00 +26°C° 0 mm 4 m/s 763 mmHg 52%
    16:00 +25°C° 0 mm 5 m/s 763 mmHg 55%
    17:00 +22°C° 0 mm 4 m/s 764 mmHg 63%
    18:00 +21°C° 0 mm 4 m/s 764 mmHg 72%
    19:00 +19°C° 0 mm 4 m/s 765 mmHg 80%
    20:00 +19°C° 0.1 mm 4 m/s 765 mmHg 80%
    21:00 +18°C° 0.1 mm 4 m/s 765 mmHg 80%
    22:00 +18°C° 0.1 mm 4 m/s 766 mmHg 80%
    23:00 +17°C° 0 mm 4 m/s 766 mmHg 79%

    22 Aprilie, Luni

    Timp Temperatura Precipitaţii Vânt Presiune Umiditate
    00:00 +17°C° 0 mm 4 m/s 766 mmHg 79%
    01:00 +17°C° 0 mm 4 m/s 766 mmHg 78%
    02:00 +17°C° 0 mm 4 m/s 766 mmHg 78%
    03:00 +17°C° 0 mm 3 m/s 766 mmHg 78%
    04:00 +16°C° 0 mm 3 m/s 766 mmHg 78%
    05:00 +16°C° 0.1 mm 3 m/s 766 mmHg 78%
    06:00 +16°C° 0.1 mm 3 m/s 767 mmHg 78%
    07:00 +16°C° 0.1 mm 3 m/s 767 mmHg 77%
    08:00 +15°C° 0.1 mm 4 m/s 767 mmHg 77%
    09:00 +15°C° 0.1 mm 4 m/s 768 mmHg 76%
    10:00 +15°C° 0.1 mm 4 m/s 768 mmHg 75%
    11:00 +15°C° 0 mm 4 m/s 768 mmHg 74%
    12:00 +15°C° 0 mm 4 m/s 767 mmHg 72%
    13:00 +17°C° 0 mm 3 m/s 767 mmHg 71%
    14:00 +17°C° 0 mm 4 m/s 767 mmHg 70%
    15:00 +17°C° 0 mm 4 m/s 767 mmHg 70%
    16:00 +17°C° 0 mm 4 m/s 767 mmHg 69%
    17:00 +17°C° 0 mm 4 m/s 767 mmHg 71%
    18:00 +17°C° 0 mm 4 m/s 768 mmHg 72%
    19:00 +15°C° 0 mm 4 m/s 768 mmHg 74%
    20:00 +15°C° 0 mm 4 m/s 769 mmHg 75%
    21:00 +16°C° 0 mm 3 m/s 769 mmHg 76%
    22:00 +14°C° 0 mm 3 m/s 769 mmHg 76%
    23:00 +14°C° 0 mm 3 m/s 769 mmHg 78%

    23 Aprilie, Marţi

    Timp Temperatura Precipitaţii Vânt Presiune Umiditate
    00:00 +14°C° 0 mm 3 m/s 768 mmHg 80%
    01:00 +14°C° 0 mm 2 m/s 768 mmHg 82%
    02:00 +13°C° 0 mm 3 m/s 768 mmHg 82%
    03:00 +13°C° 0 mm 3 m/s 768 mmHg 82%
    04:00 +13°C° 0 mm 3 m/s 768 mmHg 82%
    05:00 +14°C° 0 mm 2 m/s 768 mmHg 81%
    06:00 +14°C° 0 mm 2 m/s 768 mmHg 81%
    07:00 +14°C° 0 mm 2 m/s 769 mmHg 81%
    08:00 +15°C° 0 mm 2 m/s 769 mmHg 77%
    09:00 +16°C° 0 mm 2 m/s 769 mmHg 74%
    10:00 +18°C° 0 mm 1 m/s 769 mmHg 71%
    11:00 +18°C° 0 mm 1 m/s 768 mmHg 69%
    12:00 +19°C° 0 mm 1 m/s 767 mmHg 66%
    13:00 +20°C° 0 mm 1 m/s 767 mmHg 64%
    14:00 +21°C° 0 mm 1 m/s 766 mmHg 62%
    15:00 +21°C° 0 mm 1 m/s 766 mmHg 60%
    16:00 +21°C° 0 mm 2 m/s 765 mmHg 58%
    17:00 +20°C° 0 mm 2 m/s 766 mmHg 63%
    18:00 +19°C° 0 mm 2 m/s 766 mmHg 68%
    19:00 +18°C° 0 mm 3 m/s 766 mmHg 72%
    20:00 +17°C° 0 mm 2 m/s 767 mmHg 76%
    21:00 +16°C° 0 mm 2 m/s 767 mmHg 79%
    22:00 +15°C° 0 mm 2 m/s 767 mmHg 83%
    23:00 +15°C° 0 mm 1 m/s 766 mmHg 84%

    24 Aprilie, Miercuri

    Timp Temperatura Precipitaţii Vânt Presiune Umiditate
    00:00 +15°C° 0 mm 1 m/s 766 mmHg 84%
    01:00 +15°C° 0 mm 1 m/s 766 mmHg 84%
    02:00 +15°C° 0 mm 1 m/s 766 mmHg 85%
    03:00 +15°C° 0 mm 1 m/s 766 mmHg 86%
    04:00 +15°C° 0 mm 2 m/s 766 mmHg 87%
    05:00 +14°C° 0 mm 1 m/s 766 mmHg 87%
    06:00 +14°C° 0 mm 1 m/s 766 mmHg 88%
    07:00 +14°C° 0 mm 1 m/s 767 mmHg 88%
    08:00 +15°C° 0 mm 2 m/s 767 mmHg 82%
    09:00 +16°C° 0 mm 2 m/s 767 mmHg 76%
    10:00 +16°C° 0 mm 2 m/s 767 mmHg 71%
    11:00 +18°C° 0 mm 2 m/s 766 mmHg 62%
    12:00 +19°C° 0 mm 2 m/s 766 mmHg 53%
    13:00 +21°C° 0 mm 3 m/s 765 mmHg 44%
    14:00 +21°C° 0 mm 3 m/s 765 mmHg 46%
    15:00 +21°C° 0 mm 3 m/s 765 mmHg 48%
    16:00 +21°C° 0 mm 3 m/s 765 mmHg 49%
    17:00 +19°C° 0.1 mm 3 m/s 766 mmHg 59%
    18:00 +18°C° 0.1 mm 4 m/s 766 mmHg 68%
    19:00 +17°C° 0.1 mm 4 m/s 767 mmHg 78%
    20:00 +15°C° 0 mm 4 m/s 767 mmHg 77%
    21:00 +14°C° 0 mm 3 m/s 768 mmHg 77%
    22:00 +13°C° 0 mm 3 m/s 768 mmHg 76%
    23:00 +13°C° 0 mm 3 m/s 768 mmHg 77%
    Arată mai mult